EST,Max TemperatureF,Mean TemperatureF,Min TemperatureF,Max Dew PointF,MeanDew PointF,Min DewpointF,Max Humidity, Mean Humidity, Min Humidity, Max Sea Level PressureIn, Mean Sea Level PressureIn, Min Sea Level PressureIn, Max VisibilityMiles, Mean VisibilityMiles, Min VisibilityMiles, Max Wind SpeedMPH, Mean Wind SpeedMPH, Max Gust SpeedMPH,PrecipitationIn, CloudCover, Events, WindDirDegrees
2011-12-1,72,61,49,57,50,45,86,67,47,30.23,30.14,30.07,10,10,10,18,10,26,0.00,1,,353
2011-12-2,77,72,67,54,52,44,57,50,42,30.31,30.27,30.21,10,10,10,20,12,25,T,3,,40
2011-12-3,78,74,70,60,56,54,68,56,43,30.33,30.29,30.27,10,10,10,21,15,28,T,5,,63
2011-12-4,79,75,71,63,59,55,68,61,53,30.26,30.20,30.16,10,10,10,20,12,25,0.02,5,,73
2011-12-5,80,73,65,65,62,58,81,65,48,30.18,30.13,30.10,10,10,10,16,8,22,0.00,4,,99
2011-12-6,78,69,60,66,61,56,93,74,54,30.15,30.10,30.06,10,9,3,17,3,21,0.03,3,Rain,113
2011-12-7,83,71,59,63,57,48,90,67,43,30.09,30.04,29.94,10,10,10,24,8,31,0.00,3,,268
2011-12-8,71,61,50,61,50,39,73,65,57,30.19,30.14,30.08,10,10,10,15,9,21,0.00,8,,354
2011-12-9,79,75,70,68,65,60,74,69,64,30.17,30.12,30.09,10,9,2,16,8,20,0.27,8,Rain,66
2011-12-10,74,71,68,70,66,62,90,82,73,30.17,30.13,30.09,10,6,1,18,7,28,2.80,8,Rain,32
2011-12-11,77,73,68,68,66,63,90,82,73,30.20,30.16,30.11,10,8,2,20,8,24,0.25,6,Rain,55
2011-12-12,76,72,67,68,67,64,90,82,73,30.21,30.15,30.09,10,9,2,22,9,26,0.37,7,Rain,41
2011-12-13,78,75,71,64,62,60,79,67,54,30.28,30.23,30.18,10,10,10,20,12,24,T,3,,53
2011-12-14,77,74,71,62,58,55,73,60,47,30.29,30.25,30.21,10,10,10,20,12,25,0.00,4,,66
2011-12-15,76,73,70,64,58,55,66,60,53,30.25,30.20,30.16,10,10,10,15,8,20,T,7,,82
2011-12-16,79,70,61,64,61,59,93,73,52,30.22,30.18,30.15,10,10,9,17,6,22,T,5,Rain,112
2011-12-17,80,70,59,65,61,58,93,74,54,30.21,30.16,30.11,10,8,0,14,4,17,0.00,3,Fog,331
2011-12-18,72,64,56,61,55,52,90,70,49,30.27,30.21,30.16,10,10,10,17,9,23,0.00,1,,332
2011-12-19,75,66,57,55,53,51,86,68,49,30.29,30.24,30.21,10,10,10,20,12,25,0.00,3,,108
2011-12-20,78,73,68,64,60,54,73,64,54,30.23,30.18,30.14,10,10,10,21,13,28,0.00,4,,131
2011-12-21,81,73,64,65,62,59,84,68,52,30.19,30.14,30.09,10,10,9,18,9,25,T,3,Rain,152
2011-12-22,82,71,59,66,63,56,90,74,58,30.18,30.13,30.09,10,10,8,20,8,24,0.00,1,,152
2011-12-23,81,71,60,69,63,57,93,78,62,30.20,30.16,30.10,10,7,0,16,4,18,0.00,2,Fog,134
2011-12-24,80,71,62,72,66,61,93,83,73,30.26,30.21,30.16,10,4,0,13,4,17,0.05,4,Fog-Rain,4
2011-12-25,80,71,62,69,65,60,93,78,62,30.27,30.22,30.18,10,8,2,13,4,49,0.00,3,,122
2011-12-26,77,70,63,69,65,60,93,81,69,30.22,30.16,30.11,10,6,0,13,4,17,0.33,5,Fog-Rain,28
2011-12-27,81,72,62,68,65,54,93,76,58,30.09,30.01,29.93,10,9,1,25,11,33,0.17,5,Rain,214
2011-12-28,64,55,45,54,44,36,86,60,34,30.19,30.12,30.06,10,10,10,20,7,26,0.00,0,,312
2011-12-29,70,58,46,53,47,39,86,69,51,30.17,30.12,30.08,10,10,10,12,4,15,0.00,2,,342
2011-12-30,75,64,53,61,56,50,93,77,60,30.18,30.12,30.09,10,10,9,12,5,16,0.00,2,,359
2011-12-31,79,67,54,62,56,53,93,68,42,30.23,30.16,30.13,10,6,0,12,4,14,0.00,1,Fog,259